STARLINK-1161 (45068 NORAD) Tracking and Keplerian Element Data

This shows tracking and keplerian element data for the satellite.

Feedback or suggestion? Click here.




ElementValue
Catalog45068
NameSTARLINK-1161
Epoch Orbit177
Epoch Day52.91667824
Epoch Year2020
RAAN119.4824
Inclination52.9962
Eccentricity0.0001434
Argument of Perigee49.0385
Mean Anonmoly109.8724
Mean Motion15.73158788
Decay Rate0.00167105
L11 45068U 20006AA 20052.91667824 .00167105 00000-0 11733-2 0 9990
L22 45068 52.9962 119.4824 0001434 49.0385 109.8724 15.73158788 1777

Live tracking and technical data element details for STARLINK-1161 (NORAD 45068). STARLINK-1161 can be tracked NOW for your location showing map with azimuth and elevation plus other details from your city location.

Track the satellite on the map from your city or location and see movement details for azimuth, elevation, latitude, longitude, range, height, and movement on the map or in text.







IsCatalogInMostPopularTable: catalog: 45068, numindb: 5
Update: records affected: 1



GetName: 45068 STARLINK-1161

Hit Count: updated at: Mon, 24 Feb 2020 17:45:57 GMT